[[{"header":{"parameterUnit":"m.s-1","parameterCategory":1,"la1":30.2991,"la2":30.254,"lo1":-89.0895,"lo2":-89.0444,"dy":0.0017,"dx":0.0017,"nx":28,"ny":28,"refTime":"2025-09-03T03:00:00:Z","depth":0,"parameterNumber":2,"parameterNumberName":"U-component_of_WINDS"},"data":[0,0,0,0,0,0,0,0,0,0,0,0,0,0,0,0,0,0,0,0,0,0,0,0,0,0,0,0,0,0,0,0,0,0,0,0,0,0,0,0,0,0,0,0,0,0,0,0,0,0,0,0,0,0,0,0,0,0,-2.5512,-2.5513,0,-2.5601,-2.5602,-2.5603,-2.5535,-2.5532,-2.5529,-2.5526,-2.5615,-2.562,-2.5625,0,0,0,0,0,0,0,0,0,0,0,0,0,-2.5284,-2.5288,-2.5512,-2.5513,-2.5515,-2.56,-2.5602,-2.5603,-2.5535,-2.5532,-2.5528,-2.5525,-2.5614,-2.562,-2.5626,0,0,0,0,0,0,0,0,0,0,0,0,0,-2.5379,-2.529,-2.5512,-2.5491,-2.549,-2.56,-2.5602,-2.5603,-2.5536,-2.5532,-2.5527,-2.5523,-2.5612,-2.5619,-2.5627,-2.5762,0,0,-2.565,-2.5653,0,0,0,0,0,0,0,0,-2.5373,-2.5387,-2.5493,-2.5493,-2.5492,-2.5552,-2.5554,-2.5656,-2.5537,-2.5519,-2.5526,-2.5521,-2.5598,-2.5606,-2.5632,-2.5766,-2.577,-2.5651,-2.5655,-2.5659,-2.5661,0,0,0,0,0,0,0,-2.5367,-2.5383,-2.5547,-2.5495,-2.5494,-2.5477,-2.5486,-2.5573,-2.5582,-2.552,-2.5515,-2.5527,-2.5597,-2.5625,-2.5634,-2.5771,-2.565,-2.5657,-2.5662,-2.5665,-2.6018,-2.6023,0,0,0,0,0,0,-2.5362,-2.5378,-2.5544,-2.555,-2.5421,-2.5485,-2.5494,-2.5537,-2.5581,-2.5583,-2.553,-2.5523,-2.5614,-2.5625,-2.5637,-2.5797,-2.5659,-2.5666,-2.567,-2.6013,-2.6019,-2.6024,0,0,0,0,0,0,-2.5358,-2.5378,-2.5541,-2.5463,-2.5482,-2.5493,-2.5542,-2.5541,-2.557,-2.5588,-2.5589,-2.5558,-2.5611,-2.5626,-2.5731,-2.5799,-2.5669,-2.5676,-2.6008,-2.6015,-2.6022,-2.6118,0,0,0,0,0,0,-2.5351,-2.5377,-2.5428,-2.5464,-2.5486,-2.5634,-2.5546,-2.5546,-2.5583,-2.5575,-2.5615,-2.5617,-2.5609,-2.572,-2.5739,-2.5807,-2.5682,-2.6002,-2.6011,-2.602,-2.6109,-2.6128,-2.6144,0,0,0,0,0,-2.5344,-2.5452,-2.5431,-2.5452,-2.5551,-2.5638,-2.5651,-2.564,-2.5589,-2.5641,-2.5653,-2.5616,-2.5789,-2.5731,-2.5752,-2.5824,-2.5997,-2.6008,-2.6019,-2.6101,-2.6124,-2.6144,0,0,0,0,0,0,-2.5423,-2.5456,-2.5434,-2.5557,-2.5596,-2.5627,-2.5691,-2.5664,-2.5717,-2.5707,-2.5691,-2.57,-2.581,-2.5827,-2.5763,-2.5956,-2.5885,-2.59,-2.5941,-2.5963,-2.598,-2.5973,-2.5688,0,0,0,0,0,-2.5455,-2.5524,-2.5548,-2.5655,-2.5675,-2.568,-2.5718,-2.5706,-2.5745,-2.576,-2.578,-2.5818,-2.5881,-2.5923,-2.5982,-2.6112,-2.6119,-2.6171,-2.6189,-2.6203,-2.6216,-2.6285,-2.6308,-2.606,-2.606,-2.606,0,0,-2.5522,-2.5548,-2.5592,-2.5672,-2.57,-2.577,-2.5694,-2.5772,-2.5824,-2.5772,-2.5872,-2.5888,-2.593,-2.6047,-2.61,-2.6065,-2.6286,-2.6217,-2.6228,-2.6233,-2.6298,-2.6322,-2.6343,-2.6067,-2.6066,-2.6065,0,0,-2.5679,-2.5707,-2.5798,-2.5828,-2.5871,-2.5874,-2.5896,-2.5932,-2.594,-2.6041,-2.6003,-2.6064,-2.6173,-2.6204,-2.6234,-2.6404,-2.6371,-2.6424,-2.6514,-2.6582,-2.6601,-2.6618,-2.6678,-2.6699,-2.6437,-2.6437,-2.6437,0,-2.5756,-2.5861,-2.5848,-2.5928,-2.5964,-2.5921,-2.6013,-2.6042,-2.6103,-2.6128,-2.6088,-2.6224,-2.6249,-2.6373,-2.6414,-2.6441,-2.6465,-2.6418,-2.66,-2.6617,-2.6633,-2.6689,-2.6711,-2.6443,-2.6442,-2.6442,-2.6441,0,-2.5953,-2.6026,-2.6095,-2.6155,-2.6198,-2.6284,-2.6283,-2.6329,-2.6313,-2.632,-2.6422,-2.6451,-2.6515,-2.6544,-2.653,-2.6666,-2.6643,-2.6602,-2.653,-2.6663,-2.6715,-2.6737,-2.6452,-2.6449,-2.6448,-2.6446,0,0,-2.6161,-2.6214,-2.6239,-2.6265,-2.6311,-2.6367,-2.6451,-2.6514,-2.6552,-2.6596,-2.6665,-2.6758,-2.6721,-2.6755,-2.6744,-2.6803,-2.6934,-2.6755,-2.6756,-2.6786,-2.7085,-2.7115,-2.714,-2.6914,-2.6918,-2.6921,-2.7081,0,-2.632,-2.6466,-2.6457,-2.6594,-2.6661,-2.6621,-2.6694,-2.6729,-2.6738,-2.6796,-2.6805,-2.6871,-2.6817,-2.6837,-2.6895,-2.6906,-2.6994,-2.6895,-2.6977,-2.698,-2.6966,-2.7167,-2.7199,-2.7349,-2.7102,-2.7105,-2.7108,0,-2.6523,-2.6574,-2.6718,-2.6753,-2.6781,-2.6847,-2.6903,-2.6959,-2.6999,-2.7001,-2.704,-2.7019,-2.7102,-2.703,-2.7144,-2.7077,-2.711,-2.7121,-2.7127,-2.7133,-2.7051,-2.7178,-2.7396,-2.7418,-2.714,-2.7138,-2.7135,0,-2.666,-2.6764,-2.6864,-2.6888,-2.6932,-2.6979,-2.6999,-2.7034,-2.7072,-2.7122,-2.7146,-2.7205,-2.7237,-2.7282,-2.7277,-2.7225,-2.7394,-2.7321,-2.7397,-2.7397,-2.7433,-2.743,-2.7658,-2.7457,-2.7457,-2.7456,-2.7456,0,-2.6836,-2.6926,-2.6925,-2.6986,-2.7085,-2.7074,-2.7172,-2.7187,-2.7218,-2.7281,-2.7251,-2.731,-2.7301,-2.736,-2.7357,-2.7452,-2.7467,-2.747,-2.7468,-2.7472,-2.7472,-2.7492,-2.7481,-2.7462,-2.7461,-2.746,-2.7459,0,-2.7004,-2.7008,-2.7114,-2.7147,-2.7157,-2.7228,-2.7256,-2.7313,-2.732,-2.74,-2.7418,-2.7428,-2.7496,-2.7496,-2.7574,-2.7572,-2.7688,-2.7675,-2.7675,-2.7672,-2.7747,-2.774,-2.7995,-2.8028,-2.7807,-2.7809,-2.7811,0,-2.7116,-2.7184,-2.7225,-2.7265,-2.7288,-2.7353,-2.7392,-2.7384,-2.7425,-2.7475,-2.7526,-2.7592,-2.7644,-2.7755,-2.7769,-2.7828,-2.7815,-2.7901,-2.7824,-2.7826,-2.7815,-2.781,-2.7816,-2.7915,-2.7918,-2.792,-2.7922,0,-2.7314,-2.7312,-2.737,-2.7429,-2.7476,-2.7521,-2.7563,-2.7598,-2.7594,-2.7642,-2.7712,-2.7753,-2.7832,-2.7898,-2.7955,-2.7975,-2.7948,-2.7946,-2.7966,-2.797,-2.7967,-2.7969,-2.7714,-2.794,-2.7938,-2.7937,-2.7936,-2.7935,-2.7456,-2.7514,-2.7552,-2.7617,-2.7648,-2.7688,-2.7743,-2.7757,-2.7815,-2.7879,-2.7871,-2.7949,-2.7986,-2.806,-2.8085,-2.8145,-2.8115,-2.8146,-2.8153,-2.816,-2.8168,-2.7959,-2.8156,-2.8156,-2.8155,-2.8155,-2.8154,0,-2.765,-2.7673,-2.7733,-2.7793,-2.7844,-2.7815,-2.786,-2.7904,-2.7973,-2.801,-2.8062,-2.8142,-2.8205,-2.8225,-2.8286,-2.833,-2.8319,-2.8346,-2.8342,-2.8347,-2.8192,-2.8167,-2.8354,-2.8354,-2.8354,-2.8354,-2.8354,-2.8354,-2.7758,-2.7854,-2.7857,-2.7968,-2.799,-2.8066,-2.8094,-2.8131,-2.816,-2.8251,-2.8303,-2.8316,-2.8346,-2.8409,-2.8465,-2.8469,-2.8492,-2.8525,-2.8523,-2.8378,-2.8358,-2.8339,-2.8315,-2.853,-2.853,-2.8673,-2.8674,-2.8675]},{"header":{"parameterUnit":"m.s-1","parameterCategory":1,"la1":30.2991,"la2":30.254,"lo1":-89.0895,"lo2":-89.0444,"dy":0.0017,"dx":0.0017,"nx":28,"ny":28,"refTime":"2025-09-03T03:00:00:Z","depth":0,"parameterNumber":3,"parameterNumberName":"V-component_of_WINDS"},"data":[0,0,0,0,0,0,0,0,0,0,0,0,0,0,0,0,0,0,0,0,0,0,0,0,0,0,0,0,0,0,0,0,0,0,0,0,0,0,0,0,0,0,0,0,0,0,0,0,0,0,0,0,0,0,0,0,0,0,-2.2224,-2.2224,0,-2.2217,-2.2217,-2.2217,-2.2188,-2.2188,-2.2187,-2.2186,-2.2178,-2.2178,-2.2179,0,0,0,0,0,0,0,0,0,0,0,0,0,-2.221,-2.2211,-2.2224,-2.2224,-2.2224,-2.2217,-2.2217,-2.2217,-2.2188,-2.2188,-2.2187,-2.2186,-2.2178,-2.2178,-2.2179,0,0,0,0,0,0,0,0,0,0,0,0,0,-2.2211,-2.2211,-2.2224,-2.2209,-2.2208,-2.2217,-2.2217,-2.2217,-2.2189,-2.2188,-2.2187,-2.2186,-2.2178,-2.2178,-2.2179,-2.2202,0,0,-2.2181,-2.2181,0,0,0,0,0,0,0,0,-2.2211,-2.2212,-2.2211,-2.221,-2.2209,-2.2203,-2.2209,-2.2212,-2.2189,-2.2196,-2.2186,-2.2185,-2.2187,-2.2187,-2.2188,-2.2202,-2.2202,-2.2181,-2.2181,-2.2181,-2.2182,0,0,0,0,0,0,0,-2.2211,-2.2212,-2.2221,-2.2211,-2.221,-2.2202,-2.2201,-2.221,-2.2197,-2.2195,-2.2193,-2.2193,-2.2186,-2.2187,-2.2187,-2.2202,-2.2181,-2.2181,-2.2182,-2.2182,-2.2232,-2.2233,0,0,0,0,0,0,-2.2213,-2.2212,-2.2222,-2.2221,-2.2207,-2.2203,-2.2202,-2.2206,-2.2197,-2.2195,-2.2193,-2.2191,-2.2187,-2.2186,-2.2187,-2.2212,-2.2181,-2.2182,-2.2182,-2.2231,-2.2232,-2.2233,0,0,0,0,0,0,-2.2213,-2.2215,-2.2222,-2.2216,-2.2216,-2.2204,-2.2209,-2.2206,-2.2207,-2.2196,-2.2193,-2.2197,-2.2186,-2.2186,-2.2198,-2.2211,-2.2182,-2.2183,-2.223,-2.2231,-2.2233,-2.2264,0,0,0,0,0,0,-2.2213,-2.2215,-2.2224,-2.2216,-2.2217,-2.2235,-2.221,-2.2207,-2.2208,-2.2205,-2.2198,-2.2196,-2.2185,-2.2197,-2.2199,-2.2212,-2.2183,-2.2229,-2.2231,-2.2232,-2.2261,-2.2266,-2.227,0,0,0,0,0,-2.2213,-2.2234,-2.2225,-2.2226,-2.2229,-2.2235,-2.2236,-2.2223,-2.2209,-2.2218,-2.2211,-2.2196,-2.221,-2.2199,-2.22,-2.2213,-2.2228,-2.223,-2.2232,-2.2259,-2.2265,-2.227,0,0,0,0,0,0,-2.2244,-2.2233,-2.2223,-2.2242,-2.224,-2.2231,-2.2242,-2.2229,-2.2231,-2.2228,-2.2211,-2.221,-2.2224,-2.222,-2.2208,-2.2234,-2.2216,-2.2219,-2.2236,-2.2242,-2.2246,-2.2246,-2.2184,0,0,0,0,0,-2.2253,-2.226,-2.2249,-2.2267,-2.2267,-2.2254,-2.2257,-2.2247,-2.2244,-2.2243,-2.2236,-2.2233,-2.2236,-2.2239,-2.2241,-2.2261,-2.2257,-2.227,-2.2274,-2.2278,-2.228,-2.2288,-2.2292,-2.224,-2.224,-2.224,0,0,-2.2272,-2.2267,-2.2272,-2.2274,-2.2271,-2.2277,-2.2254,-2.2262,-2.2267,-2.2244,-2.2255,-2.2249,-2.2245,-2.226,-2.2267,-2.2257,-2.2294,-2.2281,-2.2284,-2.2284,-2.229,-2.2295,-2.23,-2.2242,-2.2242,-2.2241,0,0,-2.231,-2.2307,-2.2321,-2.2318,-2.2313,-2.2305,-2.2308,-2.23,-2.2296,-2.2306,-2.2288,-2.2293,-2.2299,-2.2296,-2.2295,-2.2329,-2.2315,-2.233,-2.2353,-2.236,-2.2364,-2.2368,-2.2378,-2.2382,-2.2333,-2.2333,-2.2333,0,-2.2334,-2.2344,-2.2329,-2.2338,-2.2338,-2.2318,-2.233,-2.2328,-2.2325,-2.2325,-2.2315,-2.2321,-2.2316,-2.2329,-2.2337,-2.2338,-2.234,-2.2331,-2.2365,-2.2368,-2.2371,-2.2381,-2.2385,-2.2335,-2.2334,-2.2334,-2.2334,0,-2.2372,-2.2379,-2.2391,-2.2387,-2.2389,-2.24,-2.2386,-2.2389,-2.2378,-2.237,-2.238,-2.2373,-2.2373,-2.2376,-2.2366,-2.2387,-2.2381,-2.2368,-2.2349,-2.2378,-2.2387,-2.2391,-2.2337,-2.2336,-2.2336,-2.2336,0,0,-2.2431,-2.2418,-2.2422,-2.2419,-2.2412,-2.2417,-2.2426,-2.2425,-2.2427,-2.2425,-2.2431,-2.2436,-2.2423,-2.2423,-2.2412,-2.2419,-2.2443,-2.2404,-2.2404,-2.2411,-2.2464,-2.2473,-2.2478,-2.2434,-2.2435,-2.2435,-2.2464,0,-2.2466,-2.2481,-2.2467,-2.2484,-2.2489,-2.2468,-2.2476,-2.2471,-2.2463,-2.2466,-2.2457,-2.246,-2.2444,-2.2443,-2.2448,-2.2439,-2.2454,-2.2437,-2.2438,-2.2439,-2.244,-2.2483,-2.2493,-2.252,-2.2467,-2.2468,-2.2468,0,-2.2509,-2.2508,-2.2525,-2.2515,-2.2516,-2.2523,-2.2521,-2.2523,-2.2517,-2.2511,-2.2509,-2.2495,-2.2501,-2.2483,-2.2491,-2.248,-2.248,-2.2475,-2.2476,-2.2475,-2.2455,-2.2482,-2.2529,-2.2533,-2.2474,-2.2474,-2.2473,0,-2.2548,-2.2551,-2.2561,-2.256,-2.2548,-2.2553,-2.2548,-2.2541,-2.2541,-2.2538,-2.2537,-2.2536,-2.2535,-2.2533,-2.2519,-2.2507,-2.2527,-2.2509,-2.2521,-2.2522,-2.2526,-2.2526,-2.2573,-2.2528,-2.2527,-2.2527,-2.2527,0,-2.2588,-2.2599,-2.2578,-2.2585,-2.2596,-2.2579,-2.259,-2.2583,-2.2577,-2.258,-2.2562,-2.2566,-2.2547,-2.2548,-2.2537,-2.2544,-2.2544,-2.2538,-2.2534,-2.2539,-2.2539,-2.2538,-2.2535,-2.2528,-2.2528,-2.2528,-2.2528,0,-2.2634,-2.262,-2.263,-2.2617,-2.2614,-2.2623,-2.2611,-2.2616,-2.2606,-2.2611,-2.2611,-2.2595,-2.2595,-2.2581,-2.2578,-2.257,-2.2582,-2.2576,-2.2584,-2.2582,-2.2595,-2.2593,-2.2641,-2.2646,-2.2599,-2.2599,-2.26,0,-2.266,-2.2668,-2.2655,-2.2656,-2.2652,-2.2654,-2.2654,-2.2637,-2.2637,-2.2629,-2.2634,-2.2632,-2.263,-2.2631,-2.2619,-2.2616,-2.2609,-2.2626,-2.2609,-2.2612,-2.2608,-2.2607,-2.2607,-2.263,-2.2631,-2.2631,-2.2631,0,-2.2707,-2.2699,-2.2699,-2.2696,-2.2696,-2.2693,-2.2689,-2.269,-2.2672,-2.2672,-2.2672,-2.267,-2.2667,-2.2665,-2.2659,-2.2653,-2.2639,-2.2637,-2.2639,-2.2644,-2.2648,-2.2644,-2.2593,-2.2636,-2.2635,-2.2635,-2.2635,-2.2635,-2.2743,-2.2748,-2.2739,-2.2739,-2.2734,-2.273,-2.2733,-2.2723,-2.2722,-2.2718,-2.2708,-2.2709,-2.27,-2.2691,-2.2686,-2.2686,-2.2677,-2.2681,-2.2682,-2.2683,-2.2685,-2.2648,-2.2685,-2.2685,-2.2684,-2.2684,-2.2684,0,-2.2788,-2.2781,-2.2781,-2.2775,-2.2774,-2.276,-2.2754,-2.2754,-2.2756,-2.2749,-2.2746,-2.2745,-2.2742,-2.273,-2.2725,-2.2727,-2.272,-2.2727,-2.2726,-2.2725,-2.2694,-2.2691,-2.2732,-2.2732,-2.2732,-2.2732,-2.2732,-2.2732,-2.2811,-2.2819,-2.281,-2.2814,-2.2806,-2.2807,-2.2804,-2.28,-2.2794,-2.2793,-2.2791,-2.2782,-2.2772,-2.2767,-2.2763,-2.2759,-2.2758,-2.2767,-2.276,-2.2732,-2.2727,-2.2723,-2.272,-2.2767,-2.2767,-2.2791,-2.2791,-2.2792]}]]